Weather History for Aberdeen, SD

Change the Weather History Date:

Wednesday, February 20, 2013

  Actual Average Record
Temperature  
Mean Temperature -3 °F 19 °F  
Max Temperature 13 °F 30 °F 61 °F (1930)
Min Temperature -19 °F 9 °F -30 °F (1918)
Degree Days  
Heating Degree Days 68 46  
Month to date heating degree days 993 979  
Since 1 July heating degree days 6006 6113  
Cooling Degree Days 0 0  
Month to date cooling degree days 0 0  
Year to date cooling degree days 0 0  
Moisture  
Dew Point -10 °F    
Average Humidity 74    
Maximum Humidity 81    
Minimum Humidity 66    
Precipitation  
Precipitation 0.00 in 0.02 in 0.62 in (1955)
Month to date precipitation 1.04 0.35  
Year to date precipitation 1.82 0.82  
Snow  
Snow 0.00 in - - ()
Month to date snowfall 15.4  
Since 1 July snowfall 38.9  
Snow Depth 8.00 in    
Sea Level Pressure  
Sea Level Pressure 30.42 in    
Wind  
Wind Speed 6 mph (ENE)    
Max Wind Speed 13 mph    
Max Gust Speed 16 mph    
Visibility 9 miles    
Events      
T = Trace of Precipitation, MM = Missing Value Source: NWS Daily Summary

Daily Weather History Graph

Daily Weather History Graph

Search for Another Location

Airport:

Trip Planner

Search our weather history database for the weather conditions in past years. The results will help you decide how hot, cold, wet, or windy it might be!

Date:

Astronomy

Feb. 20, 2013 Rise Set
Actual Time 7:26 AM CST 6:08 PM CST
Civil Twilight 6:56 AM CST 6:38 PM CST
Nautical Twilight 6:22 AM CST 7:13 PM CST
Astronomical Twilight 5:48 AM CST 7:47 PM CST
Moon 1:22 PM CST (2/20) 3:57 AM CST (2/20)
Length of Visible Light 11h 41m
Length of Day
10h 41m
Waxing Gibbous, 76% of the Moon is Illuminated
Feb 20
Waxing Gibbous
Feb 25
Full
Mar 4
Last Quarter
Mar 11
New
Mar 19
First Quarter

Hourly Weather History & Observations

Time (CST) Temp. Windchill Dew Point Humidity Pressure Visibility Wind Dir Wind Speed Gust Speed Precip Events Conditions
12:53 AM -11.9 °F -29.9 °F -18.0 °F 74% 30.54 in 10.0 mi NE 9.2 mph - N/A   Clear
1:53 AM -14.1 °F -26.3 °F -18.9 °F 79% 30.55 in 10.0 mi NE 4.6 mph - N/A   Clear
2:53 AM -14.1 °F -28.3 °F -20.0 °F 75% 30.54 in 10.0 mi North 5.8 mph - N/A   Clear
3:53 AM -17.0 °F -34.8 °F -22.0 °F 78% 30.52 in 10.0 mi NNE 8.1 mph - N/A   Clear
4:53 AM -17.0 °F -27.2 °F -22.0 °F 78% 30.51 in 10.0 mi North 3.5 mph - N/A   Clear
5:53 AM -18.9 °F -37.2 °F -24.0 °F 78% 30.51 in 10.0 mi NE 8.1 mph - N/A   Clear
6:53 AM -18.4 °F -35.1 °F -23.8 °F 76% 30.37 in 9.0 mi NE 6.9 mph - N/A   Clear
7:53 AM -16.1 °F -26.2 °F -22.0 °F 74% 30.50 in 10.0 mi North 3.5 mph - N/A   Clear
8:53 AM -15.0 °F -29.3 °F -20.9 °F 75% 30.50 in 10.0 mi NNE 5.8 mph - N/A   Clear
9:53 AM -11.0 °F -24.6 °F -18.0 °F 71% 30.50 in 10.0 mi NNE 5.8 mph - N/A   Scattered Clouds
10:53 AM -7.6 °F -16.5 °F -13.0 °F 77% 30.36 in 10.0 mi NNE 3.5 mph - N/A   Overcast
11:53 AM -2.0 °F -10.1 °F -9.0 °F 72% 30.48 in 2.5 mi NE 3.5 mph - N/A   Haze
12:02 PM -2.2 °F - -9.4 °F 71% 30.35 in 1.2 mi Calm Calm - N/A   Haze
12:12 PM -2.2 °F - -9.4 °F 71% 30.35 in 10.0 mi Calm Calm - N/A   Overcast
12:53 PM -0.0 °F -9.9 °F -7.1 °F 72% 30.46 in 10.0 mi ENE 4.6 mph - N/A   Overcast
1:53 PM 3.0 °F -9.3 °F -4.0 °F 73% 30.44 in 10.0 mi East 6.9 mph - N/A   Overcast
2:53 PM 5.0 °F -6.9 °F -2.0 °F 73% 30.40 in 10.0 mi ENE 6.9 mph - N/A   Mostly Cloudy
3:53 PM 8.1 °F -0.5 °F -0.0 °F 70% 30.38 in 10.0 mi NE 4.6 mph - N/A   Mostly Cloudy
4:53 PM 10.9 °F 4.7 °F 3.0 °F 70% 30.37 in 10.0 mi East 3.5 mph - N/A   Overcast
5:53 PM 12.0 °F 2.7 °F 3.9 °F 70% 30.35 in 10.0 mi East 5.8 mph - N/A   Overcast
6:53 PM 12.2 °F 0.7 °F 3.2 °F 67% 30.23 in 10.0 mi East 8.1 mph - N/A   Overcast
7:53 PM 10.0 °F -4.5 °F 1.9 °F 70% 30.35 in 10.0 mi East 11.5 mph - N/A   Overcast
8:53 PM 8.1 °F -6.2 °F -0.0 °F 70% 30.35 in 10.0 mi ESE 10.4 mph - N/A   Overcast
9:53 PM 8.1 °F -2.0 °F -0.0 °F 70% 30.35 in 10.0 mi ESE 5.8 mph - N/A   Mostly Cloudy
10:53 PM 9.0 °F -3.2 °F 1.9 °F 73% 30.35 in 10.0 mi SE 8.1 mph - N/A   Overcast
11:53 PM 10.4 °F -1.5 °F 1.4 °F 67% 30.25 in 10.0 mi SE 8.1 mph - N/A   Overcast